Waarnemingen

Advertentie
Mijn weer
Nancy/Essey, Frankrijk (7180): temperatuur & dauwpunt: 21.05.2018 07:00:00 - 27.05.2018 07:00:00 (CEST)Nancy/Essey, Frankrijk (7180): temperatuur 5cm: 21.05.2018 07:00:00 - 27.05.2018 07:00:00 (CEST)Nancy/Essey, Frankrijk (7180): temperatuur -20cm & temperatuur -100cm: 21.05.2018 07:00:00 - 27.05.2018 07:00:00 (CEST)Nancy/Essey, Frankrijk (7180): windsnelheid & windstoten: 21.05.2018 07:00:00 - 27.05.2018 07:00:00 (CEST)Nancy/Essey, Frankrijk (7180): windrichting: 21.05.2018 07:00:00 - 27.05.2018 07:00:00 (CEST)Nancy/Essey, Frankrijk (7180): luchtdruk: 21.05.2018 07:00:00 - 27.05.2018 07:00:00 (CEST)Nancy/Essey, Frankrijk (7180): zicht: 21.05.2018 07:00:00 - 27.05.2018 07:00:00 (CEST)Nancy/Essey, Frankrijk (7180): Zonneschijnduur: 21.05.2018 07:00:00 - 27.05.2018 07:00:00 (CEST)Nancy/Essey, Frankrijk (7180): neerslag: 21.05.2018 07:00:00 - 27.05.2018 07:00:00 (CEST)
Datum & Tijd tt [°C] td [°C] tt 5cm [°C] tt -20cm [°C] tt -100cm [°C] ff [km/u] ff [kn] fx [km/u] fx [kn] dd ppp [hPa] vv [km] sd [min] rr [mm]
27.05.2018 07:00:00 17,7 15,3 14,5 19,3 14,5 3 2 6 4 Z 1017,4 20 27 0,0
27.05.2018 06:00:00 15,6 14,5 10,6 19,4 14,5 3 1 8 5 NO 1017,0 20 0 0,0
27.05.2018 05:00:00 16,0 14,2 10,9 19,5 14,5 2 1 6 4 ZZW 1016,8 20 0 0,0
27.05.2018 04:00:00 17,1 14,7 12,8 19,6 14,4 6 3 9 5 NO 1016,6 28 0 0,0
27.05.2018 03:00:00 17,2 14,8 12,9 19,7 14,4 6 4 10 5 O 1017,4 23 0 0,0
27.05.2018 02:00:00 17,3 14,9 12,5 19,8 14,4 3 2 7 4 ONO 1017,5 20 0 0,0
27.05.2018 01:00:00 18,2 15,1 13,9 19,8 14,4 4 2 13 7 NO 1017,9 34 0 0,0
27.05.2018 00:00:00 18,9 15,8 14,6 19,8 14,4 5 3 17 9 ONO 1017,9 19 0 0,0
26.05.2018 23:00:00 20,7 15,7 15,5 19,8 14,4 3 1 7 4 NNO 1018,2 50 0 0,0
26.05.2018 22:00:00 22,2 16,2 17,9 19,8 14,4 5 3 15 8 O 1018,0 20 0 0,0
26.05.2018 21:00:00 23,3 16,1 21,4 19,7 14,4 10 5 15 8 ONO 1017,2 59 38 0,0
26.05.2018 20:00:00 24,4 16,4 23,0 19,6 14,4 9 5 22 12 O 1017,3 60 27 0,0
26.05.2018 19:00:00 25,8 18,0 25,5 19,4 14,4 13 7 22 12 O 1017,2 20 15 0,0
26.05.2018 18:00:00 26,4 16,3 27,0 19,2 14,4 5 3 17 9 ZZO 1017,5 60 0 0,0
26.05.2018 17:00:00 27,2 14,9 28,5 19,1 14,4 10 5 22 12 ZZO 1017,7 49 39 0,0
26.05.2018 16:00:00 27,7 15,7 31,1 18,9 14,3 9 5 20 11 ZZO 1017,9 52 43 0,0
26.05.2018 15:00:00 27,5 16,5 30,6 18,7 14,3 11 6 23 12 ZO 1018,1 20 40 0,0
26.05.2018 14:00:00 27,1 16,4 28,8 18,6 14,3 9 5 23 13 ZZW 1018,5 47 23 0,0
26.05.2018 13:00:00 26,2 18,1 28,4 18,5 14,3 7 4 24 13 ZZW 1018,8 20 16 0,0
26.05.2018 12:00:00 24,9 17,4 28,3 18,5 14,3 5 3 17 9 ZZO 1018,2 56 34 0,0
26.05.2018 11:00:00 23,6 17,3 27,6 18,5 14,3 9 5 19 10 ONO 1017,8 50 60 0,0
26.05.2018 10:00:00 21,9 16,8 24,6 18,6 14,3 11 6 19 10 NO 1017,6 20 60 0,0
26.05.2018 09:00:00 19,5 15,4 20,5 18,6 14,3 8 4 15 8 ONO 1017,9 20 49 0,0
26.05.2018 08:00:00 17,9 14,8 16,5 18,7 14,3 11 6 17 9 NO 1017,7 13 52 0,0
26.05.2018 07:00:00 15,6 13,4 10,7 18,8 14,2 2 1 7 4 ONO 1017,8 12 39 0,0
26.05.2018 06:00:00 14,0 12,9 10,3 19,0 14,3 1 1 9 5 Z 1017,5 11 0 0,0
26.05.2018 05:00:00 14,5 13,4 10,3 19,0 14,2 1 1 10 6 ZW 1017,5 14 0 0,0
26.05.2018 04:00:00 15,2 13,2 10,6 19,1 14,2 3 2 10 5 OZO 1017,4 16 0 0,0
26.05.2018 03:00:00 15,9 13,2 11,2 19,2 14,2 5 3 8 4 NO 1017,3 19 0 0,0
26.05.2018 02:00:00 16,4 13,5 11,4 19,3 14,2 3 1 7 4 NO 1017,3 24 0 0,0
26.05.2018 01:00:00 16,8 13,5 12,3 19,4 14,2 3 2 11 6 NO 1017,4 41 0 0,0
26.05.2018 00:00:00 17,1 13,4 13,3 19,4 14,2 11 6 12 7 NO 1017,4 60 0 0,0
25.05.2018 23:00:00 18,1 13,6 13,0 19,5 14,2 7 4 11 6 NO 1017,0 60 0 0,0
25.05.2018 22:00:00 19,5 14,1 13,9 19,4 14,2 6 4 11 6 NNO 1016,7 60 0 0,0
25.05.2018 21:00:00 21,0 14,2 18,4 19,3 14,2 8 4 12 7 NO 1016,3 60 25 0,0
25.05.2018 20:00:00 23,2 13,1 21,9 19,2 14,2 9 5 19 11 ONO 1016,2 56 42 0,0
25.05.2018 19:00:00 24,8 13,4 25,7 19,0 14,2 11 6 22 12 NO 1015,9 57 58 0,0
25.05.2018 18:00:00 25,6 14,7 26,7 18,8 14,2 11 6 19 11 ONO 1016,1 55 55 0,0
25.05.2018 17:00:00 25,6 14,1 30,1 18,6 14,2 11 6 20 11 ONO 1016,3 19 60 0,0
25.05.2018 16:00:00 25,5 14,9 27,7 18,4 14,2 10 5 24 13 NO 1016,7 19 54 0,0
25.05.2018 15:00:00 24,7 15,3 25,1 18,2 14,1 11 6 22 12 NO 1017,2 19 51 0,0
25.05.2018 14:00:00 24,5 14,0 29,1 18,0 14,1 9 5 22 12 ONO 1017,1 5 60 0,0
25.05.2018 13:00:00 23,6 15,9 28,3 17,9 14,1 8 5 20 11 NO 1017,5 44 58 0,0
25.05.2018 12:00:00 22,8 16,8 29,1 17,9 14,1 8 5 17 9 ONO 1017,8 46 60 0,0
25.05.2018 11:00:00 20,8 16,4 26,7 17,9 14,1 9 5 15 8 NO 1018,0 20 60 0,0
25.05.2018 10:00:00 18,3 16,3 19,7 17,9 14,1 5 3 11 6 OZO 1018,5 8 52 0,0
25.05.2018 09:00:00 14,3 14,0 15,3 18,0 14,1 3 1 6 3 N 1018,6 1,7 2 0,0
25.05.2018 08:00:00 13,3 13,0 13,6 18,1 14,1 2 1 5 3 ZZO 1018,4 0,2 0 0,2
25.05.2018 07:00:00 12,8 12,5 12,2 18,2 14,1 3 1 5 3 O 1018,3 0,1 0 0,0
25.05.2018 06:00:00 12,2 11,9 8,8 18,3 14,1 2 1 3 2 ZZO 1018,0 0,1 0 0,0
25.05.2018 05:00:00 11,7 11,4 9,6 18,4 14,1 2 1 4 2 Z 1018,0 0,2 0 0,0
25.05.2018 04:00:00 12,3 12,0 8,2 18,6 14,1 1 0 5 3 WNW 1017,9 0,1 0 0,0
25.05.2018 03:00:00 12,3 12,0 8,2 18,7 14,1 3 1 7 4 O 1017,7 3,7 0 0,0
25.05.2018 02:00:00 12,8 12,3 8,6 18,7 14,0 2 1 8 4 O 1018,0 2,6 0 0,0
25.05.2018 01:00:00 13,2 12,6 9,6 18,8 14,0 4 2 7 4 OZO 1018,1 3,0 0 0,0
25.05.2018 00:00:00 14,4 13,8 10,7 18,8 14,0 5 3 9 5 O 1018,0 9 0 0,0
24.05.2018 23:00:00 16,0 15,2 11,8 18,8 14,0 2 1 6 3 O 1018,0 16 0 0,0
24.05.2018 22:00:00 16,9 15,6 14,8 18,8 14,0 4 2 16 9 ZO 1017,5 19 0 0,0
24.05.2018 21:00:00 18,0 15,6 16,3 18,7 14,0 5 3 11 6 O 1017,0 52 0 0,0
24.05.2018 20:00:00 20,6 14,3 20,0 18,6 14,1 5 3 14 7 NNO 1016,1 60 48 0,0
24.05.2018 19:00:00 21,5 14,6 25,5 18,4 14,0 9 5 19 11 NNW 1015,5 59 60 0,0
24.05.2018 18:00:00 20,7 17,1 16,6 18,2 14,0 9 5 31 17 NNO 1016,0 20 31 3,2
24.05.2018 17:00:00 18,7 14,6 16,6 18,0 14,0 18 10 33 18 WNW 1016,1 18 0 0,4
24.05.2018 16:00:00 22,9 14,2 24,9 17,8 14,0 8 4 22 12 Z 1015,5 54 35 0,0
24.05.2018 15:00:00 23,6 14,6 28,5 17,7 14,0 9 5 22 12 ZZO 1015,9 60 54 0,0
24.05.2018 14:00:00 22,8 15,1 28,9 17,5 14,0 5 3 16 9 ZO 1016,8 18 55 0,0
24.05.2018 13:00:00 21,1 15,4 24,4 17,5 13,9 5 3 11 6 NO 1017,4 12 44 0,0
24.05.2018 12:00:00 19,5 15,8 23,9 17,4 13,9 5 3 18 10 ZZO 1018,2 8 6 0,0
24.05.2018 11:00:00 18,4 15,6 18,9 17,5 14,0 8 4 13 7 Z 1018,4 6 5 0,0
24.05.2018 10:00:00 16,5 14,9 17,7 17,5 13,9 6 4 11 6 Z 1018,7 3,7 0 0,0
24.05.2018 09:00:00 15,8 14,7 17,1 17,5 13,9 8 4 13 7 OZO 1018,6 6 0 0,0
24.05.2018 08:00:00 15,2 14,4 15,2 17,6 13,9 5 3 8 4 ONO 1018,3 5 0 0,0
24.05.2018 07:00:00 14,5 14,0 13,1 17,7 13,9 4 2 10 5 ONO 1018,2 3,4 33 0,0
24.05.2018 06:00:00 13,8 13,3 12,5 17,8 13,9 3 1 7 4 ONO 1018,0 2,0 0 0,0
24.05.2018 05:00:00 14,4 14,1 12,8 17,9 13,9 4 2 6 4 W 1017,9 2,7 0 0,0
24.05.2018 04:00:00 13,8 13,5 12,2 18,0 13,9 4 2 6 4 ZZO 1018,6 4,9 0 0,0
24.05.2018 03:00:00 13,5 13,2 10,9 18,0 13,9 6 4 9 5 ONO 1018,2 4,5 0 0,0
24.05.2018 02:00:00 13,9 13,4 10,5 18,1 13,9 3 2 5 3 Z 1018,3 1,9 0 0,2
24.05.2018 01:00:00 14,4 13,9 11,7 18,2 13,9 2 1 8 4 ZO 1018,3 5 0 0,0
24.05.2018 00:00:00 15,0 14,4 12,1 18,2 13,9 2 1 6 3 ONO 1018,4 10 0 0,0
23.05.2018 23:00:00 15,4 14,4 14,4 18,2 13,9 5 3 16 9 ZZO 1018,7 20 0 1,2
23.05.2018 22:00:00 16,0 13,8 14,3 18,2 13,9 14 8 54 29 O 1018,4 1,4 0 10,0
23.05.2018 21:00:00 19,1 14,4 18,4 18,1 13,9 9 5 26 14 NW 1017,5 46 0 0,0
23.05.2018 20:00:00 20,7 15,5 20,7 18,0 13,9 8 4 15 8 W 1017,0 42 41 0,0
23.05.2018 19:00:00 22,6 14,4 26,0 17,8 13,8 3 1 14 7 Z 1016,4 57 58 0,0
23.05.2018 18:00:00 21,2 14,8 23,1 17,7 13,8 8 4 20 11 ZO 1016,6 29 19 0,0
23.05.2018 17:00:00 21,8 14,4 25,4 17,6 13,8 14 8 23 12 OZO 1016,6 43 51 0,0
23.05.2018 16:00:00 21,8 15,2 17,4 17,5 13,8 10 5 24 13 OZO 1016,6 31 35 0,4
23.05.2018 15:00:00 18,5 14,8 16,6 17,3 13,8 12 6 33 18 ZZO 1017,4 1,9 0 3,3
23.05.2018 14:00:00 20,9 14,8 24,8 17,3 13,8 9 5 19 11 OZO 1017,3 45 13 0,0
23.05.2018 13:00:00 20,4 14,7 23,0 17,2 13,8 5 3 14 8 ZO 1017,7 15 0 0,0
23.05.2018 12:00:00 19,3 14,8 21,5 17,2 13,8 6 3 10 6 OZO 1017,9 17 0 0,0
23.05.2018 11:00:00 18,6 15,1 20,8 17,2 13,8 5 3 10 5 ONO 1017,5 19 0 0,0
23.05.2018 10:00:00 17,4 14,9 18,1 17,2 13,8 4 2 9 5 OZO 1017,3 18 0 0,0
23.05.2018 09:00:00 16,3 14,1 16,5 17,3 13,8 3 1 8 4 ZZO 1017,3 18 0 0,0
23.05.2018 08:00:00 15,5 14,5 14,8 17,3 13,8 4 2 6 3 O 1017,2 10 0 0,2
23.05.2018 07:00:00 14,9 14,3 13,6 17,4 13,8 4 2 9 5 Z 1016,6 8 0 0,0
23.05.2018 06:00:00 14,4 13,9 13,5 17,5 13,8 4 2 8 4 ONO 1016,1 3,5 0 0,0
23.05.2018 05:00:00 14,4 13,6 13,6 17,5 13,8 4 2 7 4 O 1015,4 4,2 0 0,0
23.05.2018 04:00:00 14,8 14,0 13,7 17,6 13,8 5 3 9 5 OZO 1015,4 7 0 0,0
23.05.2018 03:00:00 15,3 14,0 14,0 17,6 13,8 3 2 11 6 ONO 1015,2 17 0 0,0
23.05.2018 02:00:00 15,6 14,3 14,8 17,7 13,7 6 4 17 9 NNW 1015,0 10 0 0,8
23.05.2018 01:00:00 17,4 13,1 15,8 17,7 13,8 8 4 13 7 ZW 1015,0 59 0 0,0
23.05.2018 00:00:00 17,0 13,1 15,6 17,7 13,7 6 4 10 5 W 1014,5 60 0 0,0
22.05.2018 23:00:00 17,1 12,4 15,4 17,8 13,7 3 2 10 5 W 1014,6 60 0 0,0
22.05.2018 22:00:00 17,5 12,6 16,4 17,7 13,7 6 4 16 8 W 1013,9 60 0 0,0
22.05.2018 21:00:00 18,0 12,4 17,3 17,7 13,7 8 5 21 11 WNW 1013,1 60 34 0,0
22.05.2018 20:00:00 19,0 12,5 18,4 17,6 13,7 13 7 29 15 WNW 1012,7 56 5 0,0
22.05.2018 19:00:00 19,5 12,7 18,6 17,5 13,7 14 7 39 21 NW 1012,5 57 0 0,0
22.05.2018 18:00:00 22,2 13,3 22,2 17,3 13,7 12 6 20 11 W 1011,6 52 7 0,0
22.05.2018 17:00:00 24,7 11,3 28,7 17,2 13,7 2 1 17 9 N 1011,1 41 45 0,0
22.05.2018 16:00:00 23,9 12,5 23,4 17,0 13,7 6 3 17 9 N 1011,4 54 21 0,0
22.05.2018 15:00:00 22,6 11,9 24,5 16,9 13,7 6 3 16 9 NNW 1011,9 60 12 0,0
22.05.2018 14:00:00 22,3 12,5 20,4 16,8 13,7 5 3 10 6 NNO 1012,0 48 1 0,2
22.05.2018 13:00:00 21,5 12,9 21,8 16,6 13,7 6 3 21 12 N 1012,2 46 2 0,0
22.05.2018 12:00:00 23,1 14,1 26,6 16,6 13,7 11 6 19 10 NO 1012,1 43 55 0,0
22.05.2018 11:00:00 22,4 15,0 27,3 16,6 13,7 4 2 13 7 O 1012,1 20 60 0,0
22.05.2018 10:00:00 20,1 13,8 23,3 16,6 13,7 5 3 10 5 ONO 1012,4 17 50 0,0
22.05.2018 09:00:00 17,8 12,5 18,9 16,7 13,7 3 1 10 5 Z 1012,7 34 56 0,0
22.05.2018 08:00:00 15,0 11,9 13,9 16,8 13,7 5 3 8 5 ZO 1012,6 16 60 0,0
22.05.2018 07:00:00 12,4 11,0 6,2 16,9 13,7 2 1 4 2 O 1012,9 12 48 0,0
22.05.2018 06:00:00 9,5 8,9 5,5 17,1 13,7 5 3 7 4 OZO 1012,6 12 0 0,0
22.05.2018 05:00:00 9,9 9,3 5,5 17,2 13,7 4 2 7 4 O 1012,4 11 0 0,0
22.05.2018 04:00:00 10,5 9,6 6,5 17,3 13,7 4 2 7 4 OZO 1012,1 27 0 0,0
22.05.2018 03:00:00 10,8 9,2 6,7 17,4 13,6 5 3 6 3 O 1012,2 54 0 0,0
22.05.2018 02:00:00 11,8 10,2 7,5 17,5 13,7 3 2 6 4 O 1012,2 58 0 0,0
22.05.2018 01:00:00 13,2 10,2 9,1 17,5 13,7 2 1 10 5 W 1012,6 60 0 0,0
22.05.2018 00:00:00 13,4 10,9 10,1 17,6 13,7 8 4 11 6 O 1012,8 60 0 0,0
21.05.2018 23:00:00 14,4 11,0 10,5 17,6 13,6 3 1 10 5 OZO 1012,5 58 0 0,0
21.05.2018 22:00:00 14,4 10,6 10,4 17,6 13,6 8 4 10 5 O 1012,2 60 0 0,0
21.05.2018 21:00:00 18,3 10,6 14,7 17,5 13,6 5 3 20 11 ZZO 1011,5 60 3 0,0
21.05.2018 20:00:00 20,6 13,1 21,2 17,4 13,6 16 8 30 16 Z 1011,4 40 57 0,0
21.05.2018 19:00:00 21,6 13,5 21,5 17,2 13,7 16 9 34 18 OZO 1011,2 20 22 0,0
21.05.2018 18:00:00 22,6 11,3 22,5 17,0 13,6 6 3 18 10 OZO 1011,2 60 12 0,0
21.05.2018 17:00:00 23,6 10,6 27,1 16,7 13,6 11 6 24 13 ZZO 1011,4 60 43 0,0
21.05.2018 16:00:00 24,4 10,7 25,0 16,4 13,6 8 4 21 11 Z 1011,5 53 46 0,0
21.05.2018 15:00:00 23,8 10,8 29,9 16,2 13,6 13 7 26 14 Z 1012,1 60 60 0,0
21.05.2018 14:00:00 23,0 11,4 29,6 16,0 13,6 15 8 28 15 Z 1012,6 47 60 0,0
21.05.2018 13:00:00 22,4 12,9 27,9 15,9 13,6 13 7 25 14 Z 1013,0 20 60 0,0
21.05.2018 12:00:00 20,9 13,1 26,8 15,7 13,6 12 7 26 14 ZZO 1013,3 28 60 0,0
21.05.2018 11:00:00 19,1 12,4 24,6 15,7 13,6 7 4 18 10 Z 1013,8 20 60 0,0
21.05.2018 10:00:00 17,3 12,2 21,8 15,8 13,6 6 4 14 8 OZO 1014,2 20 60 0,0
21.05.2018 09:00:00 16,0 11,6 18,8 15,9 13,6 4 2 12 6 O 1014,3 20 60 0,0
21.05.2018 08:00:00 14,8 11,4 12,0 16,0 13,6 3 1 8 4 O 1014,5 19 60 0,0
21.05.2018 07:00:00 10,4 9,8 4,2 16,1 13,6 1 1 4 2 Z 1015,0 9 47 0,0

tt = temperatuur
td = dauwpunt
tt 5cm = temperatuur 5cm
tt -20cm = temperatuur -20cm
tt -100cm = temperatuur -100cm
ff = windsnelheid
fx = windstoten
dd = windrichting
ppp = luchtdruk
vv = zicht
sd = Zonneschijnduur
rr = neerslag

Weerstations in de omgeving